When you browse on this site, cookies collect data to enhance your experience and personalize the content and advertising you see.
Visit our Privacy Policy to learn more. By continuing to use the site, you agree to this use of cookies and data.
  • In United Kingdom
  • List of Countries
  • For 7 days
  • Water Temperature
  • Satellite Maps
  • Weather Map
  • Weather Widgets
  • user-avatar
    Login

    Hourly Weather Laszkar Gah

    Today, 23 March, Saturday

    Time Temperature Precipitation Wind Pressure Humidity
    00:00 +21°C° 0 mm 4 mps 694 mmHg 45%
    01:00 +20°C° 0 mm 4 mps 694 mmHg 50%
    02:00 +19°C° 0 mm 3 mps 694 mmHg 51%
    03:00 +19°C° 0 mm 3 mps 694 mmHg 51%
    04:00 +18°C° 0 mm 2 mps 693 mmHg 52%
    05:00 +18°C° 0.1 mm 2 mps 694 mmHg 52%
    06:00 +19°C° 0.1 mm 1 mps 694 mmHg 52%
    07:00 +19°C° 0.1 mm 1 mps 695 mmHg 52%
    08:00 +20°C° 0.1 mm 1 mps 695 mmHg 47%
    09:00 +22°C° 0.1 mm 1 mps 696 mmHg 41%
    10:00 +23°C° 0.1 mm 1 mps 696 mmHg 35%
    11:00 +24°C° 0 mm 1 mps 696 mmHg 33%
    12:00 +24°C° 0 mm 1 mps 695 mmHg 30%
    13:00 +25°C° 0 mm 1 mps 695 mmHg 27%
    14:00 +26°C° 0 mm 2 mps 695 mmHg 26%
    15:00 +26°C° 0 mm 3 mps 695 mmHg 26%
    16:00 +26°C° 0 mm 3 mps 694 mmHg 25%
    17:00 +26°C° 0 mm 3 mps 694 mmHg 27%
    18:00 +25°C° 0 mm 3 mps 694 mmHg 29%
    19:00 +24°C° 0 mm 2 mps 695 mmHg 31%
    20:00 +24°C° 0 mm 2 mps 695 mmHg 32%
    21:00 +23°C° 0 mm 2 mps 695 mmHg 34%
    22:00 +23°C° 0 mm 2 mps 695 mmHg 35%
    23:00 +21°C° 0 mm 3 mps 695 mmHg 36%

    Tomorrow, 24 March, Sunday

    Time Temperature Precipitation Wind Pressure Humidity
    00:00 +21°C° 0 mm 3 mps 694 mmHg 38%
    01:00 +20°C° 0 mm 3 mps 694 mmHg 39%
    02:00 +20°C° 0 mm 3 mps 694 mmHg 41%
    03:00 +19°C° 0 mm 3 mps 694 mmHg 44%
    04:00 +18°C° 0 mm 3 mps 693 mmHg 46%
    05:00 +19°C° 0 mm 4 mps 694 mmHg 45%
    06:00 +19°C° 0 mm 4 mps 694 mmHg 44%
    07:00 +19°C° 0 mm 4 mps 694 mmHg 43%
    08:00 +20°C° 0 mm 4 mps 695 mmHg 39%
    09:00 +22°C° 0 mm 4 mps 695 mmHg 36%
    10:00 +23°C° 0 mm 4 mps 696 mmHg 33%
    11:00 +25°C° 0 mm 3 mps 695 mmHg 31%
    12:00 +26°C° 0 mm 2 mps 695 mmHg 29%
    13:00 +26°C° 0 mm 2 mps 694 mmHg 27%
    14:00 +27°C° 0 mm 1 mps 694 mmHg 26%
    15:00 +27°C° 0 mm 1 mps 693 mmHg 25%
    16:00 +27°C° 0 mm 1 mps 693 mmHg 25%
    17:00 +27°C° 0 mm 1 mps 693 mmHg 26%
    18:00 +26°C° 0 mm 2 mps 693 mmHg 28%
    19:00 +26°C° 0 mm 3 mps 693 mmHg 30%
    20:00 +25°C° 0 mm 3 mps 693 mmHg 31%
    21:00 +23°C° 0 mm 4 mps 693 mmHg 31%
    22:00 +22°C° 0 mm 5 mps 693 mmHg 32%
    23:00 +22°C° 0 mm 5 mps 693 mmHg 33%

    Day after tomorrow, 25 March, Monday

    Time Temperature Precipitation Wind Pressure Humidity
    00:00 +21°C° 0 mm 4 mps 693 mmHg 35%
    01:00 +21°C° 0 mm 4 mps 693 mmHg 36%
    02:00 +20°C° 0 mm 4 mps 693 mmHg 37%
    03:00 +20°C° 0 mm 5 mps 693 mmHg 39%
    04:00 +19°C° 0 mm 5 mps 693 mmHg 40%
    05:00 +20°C° 0 mm 5 mps 693 mmHg 40%
    06:00 +20°C° 0 mm 5 mps 694 mmHg 41%
    07:00 +20°C° 0 mm 5 mps 694 mmHg 42%
    08:00 +22°C° 0 mm 4 mps 695 mmHg 38%
    09:00 +25°C° 0 mm 4 mps 696 mmHg 35%
    10:00 +26°C° 0 mm 4 mps 696 mmHg 31%
    11:00 +27°C° 0 mm 3 mps 696 mmHg 29%
    12:00 +28°C° 0 mm 2 mps 696 mmHg 26%
    13:00 +29°C° 0 mm 1 mps 695 mmHg 24%
    14:00 +29°C° 0 mm 1 mps 695 mmHg 23%
    15:00 +30°C° 0 mm 1 mps 695 mmHg 21%
    16:00 +30°C° 0 mm 1 mps 694 mmHg 20%
    17:00 +29°C° 0 mm 2 mps 694 mmHg 22%
    18:00 +28°C° 0 mm 2 mps 695 mmHg 24%
    19:00 +28°C° 0 mm 2 mps 695 mmHg 26%
    20:00 +27°C° 0 mm 3 mps 695 mmHg 28%
    21:00 +26°C° 0 mm 4 mps 695 mmHg 29%
    22:00 +25°C° 0 mm 5 mps 695 mmHg 31%
    23:00 +25°C° 0 mm 5 mps 695 mmHg 33%

    26 March, Tuesday

    Time Temperature Precipitation Wind Pressure Humidity
    00:00 +23°C° 0 mm 5 mps 694 mmHg 34%
    01:00 +23°C° 0 mm 5 mps 694 mmHg 36%
    02:00 +22°C° 0 mm 4 mps 694 mmHg 36%
    03:00 +22°C° 0 mm 4 mps 694 mmHg 37%
    04:00 +21°C° 0 mm 4 mps 694 mmHg 38%
    05:00 +21°C° 0 mm 4 mps 694 mmHg 38%
    06:00 +22°C° 0 mm 5 mps 695 mmHg 37%
    07:00 +22°C° 0 mm 5 mps 695 mmHg 37%
    08:00 +25°C° 0 mm 5 mps 696 mmHg 32%
    09:00 +27°C° 0 mm 5 mps 696 mmHg 28%
    10:00 +29°C° 0 mm 4 mps 697 mmHg 24%
    11:00 +30°C° 0 mm 4 mps 697 mmHg 23%
    12:00 +32°C° 0 mm 4 mps 696 mmHg 21%
    13:00 +33°C° 0 mm 4 mps 696 mmHg 20%
    14:00 +33°C° 0 mm 4 mps 696 mmHg 21%
    15:00 +32°C° 0 mm 4 mps 696 mmHg 23%
    16:00 +30°C° 0 mm 4 mps 695 mmHg 25%
    17:00 +30°C° 0 mm 4 mps 696 mmHg 27%
    18:00 +29°C° 0 mm 4 mps 696 mmHg 29%
    19:00 +28°C° 0 mm 4 mps 696 mmHg 31%
    20:00 +28°C° 0 mm 4 mps 696 mmHg 32%
    21:00 +27°C° 0 mm 4 mps 696 mmHg 33%
    22:00 +27°C° 0 mm 4 mps 696 mmHg 34%
    23:00 +26°C° 0 mm 4 mps 696 mmHg 34%

    27 March, Wednesday

    Time Temperature Precipitation Wind Pressure Humidity
    00:00 +26°C° 0 mm 5 mps 695 mmHg 34%
    01:00 +26°C° 0 mm 5 mps 695 mmHg 35%
    02:00 +25°C° 0 mm 5 mps 695 mmHg 36%
    03:00 +25°C° 0 mm 4 mps 694 mmHg 38%
    04:00 +24°C° 0 mm 3 mps 694 mmHg 39%
    05:00 +25°C° 0 mm 3 mps 695 mmHg 39%
    06:00 +25°C° 0 mm 3 mps 695 mmHg 38%
    07:00 +25°C° 0 mm 3 mps 696 mmHg 37%
    08:00 +26°C° 0 mm 2 mps 696 mmHg 33%
    09:00 +27°C° 0 mm 2 mps 696 mmHg 29%
    10:00 +28°C° 0 mm 2 mps 697 mmHg 25%
    11:00 +28°C° 0 mm 3 mps 697 mmHg 26%
    12:00 +28°C° 0 mm 4 mps 697 mmHg 26%
    13:00 +28°C° 0 mm 5 mps 697 mmHg 27%
    14:00 +26°C° 0.5 mm 4 mps 697 mmHg 35%
    15:00 +25°C° 0.5 mm 4 mps 696 mmHg 43%
    16:00 +22°C° 0.5 mm 4 mps 696 mmHg 51%
    17:00 +22°C° 0 mm 3 mps 697 mmHg 52%
    18:00 +22°C° 0 mm 3 mps 697 mmHg 53%
    19:00 +22°C° 0 mm 3 mps 697 mmHg 54%
    20:00 +21°C° 0 mm 4 mps 697 mmHg 56%
    21:00 +21°C° 0 mm 4 mps 697 mmHg 58%
    22:00 +20°C° 0 mm 5 mps 696 mmHg 59%
    23:00 +20°C° 0 mm 5 mps 696 mmHg 60%

    28 March, Thursday

    Time Temperature Precipitation Wind Pressure Humidity
    00:00 +20°C° 0 mm 5 mps 695 mmHg 61%
    01:00 +19°C° 0 mm 4 mps 695 mmHg 63%
    02:00 +19°C° 0 mm 4 mps 695 mmHg 63%
    03:00 +19°C° 0 mm 4 mps 694 mmHg 64%
    04:00 +19°C° 0 mm 4 mps 694 mmHg 64%
    05:00 +19°C° 0 mm 4 mps 695 mmHg 62%
    06:00 +19°C° 0 mm 5 mps 695 mmHg 60%
    07:00 +20°C° 0 mm 5 mps 695 mmHg 59%
    08:00 +22°C° 0 mm 5 mps 696 mmHg 51%
    09:00 +25°C° 0 mm 5 mps 696 mmHg 44%
    10:00 +27°C° 0 mm 4 mps 696 mmHg 37%
    11:00 +28°C° 0 mm 3 mps 696 mmHg 34%
    12:00 +28°C° 0 mm 2 mps 696 mmHg 31%
    13:00 +29°C° 0 mm 1 mps 695 mmHg 28%
    14:00 +30°C° 0 mm 1 mps 695 mmHg 27%
    15:00 +30°C° 0 mm 1 mps 694 mmHg 25%
    16:00 +30°C° 0 mm 1 mps 694 mmHg 23%
    17:00 +30°C° 0 mm 1 mps 694 mmHg 25%
    18:00 +29°C° 0 mm 1 mps 694 mmHg 27%
    19:00 +28°C° 0 mm 2 mps 694 mmHg 29%
    20:00 +27°C° 0 mm 2 mps 694 mmHg 30%
    21:00 +27°C° 0 mm 2 mps 694 mmHg 30%
    22:00 +26°C° 0 mm 2 mps 694 mmHg 31%
    23:00 +25°C° 0 mm 3 mps 694 mmHg 32%
    Show more